Marysville, MI

3:49 PM EST on December 06, 2016 (GMT -0500)
Saint Clair County International

Weather History for KPHN - December, 2013

Change the Weather History Date:

Friday, December 13, 2013

  Actual Average (KMTC) Record (KMTC)
Temperature  
Mean Temperature 20 °F -  
Max Temperature 24 °F 35 °F 56 °F (2015)
Min Temperature 17 °F 24 °F 2 °F (1962)
Degree Days  
Heating Degree Days 44    
Moisture  
Dew Point 13 °F    
Average Humidity 72    
Maximum Humidity 86    
Minimum Humidity 58    
Precipitation  
Precipitation 0.00 in - - ()
Sea Level Pressure  
Sea Level Pressure 30.20 in    
Wind  
Wind Speed 5 mph (North)    
Max Wind Speed 10 mph    
Max Gust Speed -    
Visibility 10 miles    
Events Snow    
Averages and records for this station are not official NWS values.
T = Trace of Precipitation, MM = Missing Value Source: NWS Daily Summary

Daily Weather History Graph

Daily Weather History Graph

Search for Another Location

Airport or City:

Trip Planner

Search our weather history database for the weather conditions in past years. The results will help you decide how hot, cold, wet, or windy it might be!

Date:

Astronomy

Dec. 13, 2013 Rise Set
Actual Time 7:52 AM EST 4:56 PM EST
Civil Twilight 7:20 AM EST 5:28 PM EST
Nautical Twilight 6:44 AM EST 6:04 PM EST
Astronomical Twilight 6:10 AM EST 6:38 PM EST
Moon 2:41 PM EST (12/13) 4:10 AM EST (12/13)
Length of Visible Light 10h 07m
Length of Day
9h 03m
Waxing Gibbous, 88% of the Moon is Illuminated
Dec 13
Waxing Gibbous
Dec 17
Full
Dec 25
Last Quarter
Jan 1
New
Jan 7
First Quarter

Hourly Weather History & Observations

Time (EST) Temp. Windchill Dew Point Humidity Pressure Visibility Wind Dir Wind Speed Gust Speed Precip Events Conditions
12:17 AM 17.6 °F 7.3 °F 10.4 °F 73% 30.12 in 10.0 mi SW 8.1 mph - N/A   Overcast
12:37 AM 17.6 °F 8.2 °F 10.4 °F 73% 30.11 in 10.0 mi SSW 6.9 mph - N/A   Overcast
12:57 AM 17.6 °F 8.2 °F 10.4 °F 73% 30.11 in 10.0 mi SW 6.9 mph - N/A   Overcast
1:17 AM 19.4 °F 10.4 °F 10.4 °F 68% 30.10 in 10.0 mi SW 6.9 mph - N/A   Overcast
1:37 AM 19.4 °F 10.4 °F 12.2 °F 74% 30.10 in 10.0 mi SW 6.9 mph - N/A   Overcast
1:57 AM 19.4 °F 11.5 °F 12.2 °F 74% 30.11 in 10.0 mi SW 5.8 mph - N/A   Overcast
2:17 AM 19.4 °F 11.5 °F 12.2 °F 74% 30.11 in 10.0 mi SSW 5.8 mph - N/A   Overcast
2:37 AM 19.4 °F 12.8 °F 12.2 °F 74% 30.11 in 10.0 mi SW 4.6 mph - N/A   Overcast
2:57 AM 19.4 °F 12.8 °F 12.2 °F 74% 30.11 in 10.0 mi SW 4.6 mph - N/A   Overcast
3:17 AM 19.4 °F 12.8 °F 12.2 °F 74% 30.12 in 10.0 mi SW 4.6 mph - N/A   Overcast
3:37 AM 21.2 °F 14.9 °F 14.0 °F 74% 30.12 in 10.0 mi SW 4.6 mph - N/A   Overcast
3:57 AM 21.2 °F 16.4 °F 14.0 °F 74% 30.12 in 10.0 mi SSW 3.5 mph - N/A   Overcast
4:17 AM 21.2 °F 16.4 °F 14.0 °F 74% 30.12 in 10.0 mi SW 3.5 mph - N/A   Overcast
4:37 AM 21.2 °F - 15.8 °F 80% 30.11 in 10.0 mi Calm Calm - N/A   Overcast
4:57 AM 21.2 °F - 15.8 °F 80% 30.12 in 10.0 mi Calm Calm - N/A   Overcast
5:17 AM 21.2 °F - 15.8 °F 80% 30.11 in 10.0 mi Calm Calm - N/A   Overcast
5:37 AM 21.2 °F 14.9 °F 15.8 °F 80% 30.11 in 10.0 mi SSW 4.6 mph - N/A   Overcast
5:57 AM 21.2 °F 16.4 °F 15.8 °F 80% 30.11 in 10.0 mi SSW 3.5 mph - N/A   Overcast
6:17 AM 21.2 °F - 15.8 °F 80% 30.13 in 10.0 mi Calm Calm - N/A   Overcast
6:37 AM 21.2 °F 14.9 °F 15.8 °F 80% 30.13 in 10.0 mi SSW 4.6 mph - N/A   Overcast
6:57 AM 21.2 °F - 15.8 °F 80% 30.14 in 10.0 mi Calm Calm - N/A   Overcast
7:17 AM 21.2 °F - 15.8 °F 80% 30.14 in 7.0 mi Calm Calm - N/A Snow Light Snow
7:37 AM 21.2 °F - 17.6 °F 86% 30.14 in 5.0 mi Calm Calm - N/A Snow Light Snow
7:57 AM 21.2 °F - 17.6 °F 86% 30.15 in 7.0 mi Calm Calm - N/A Snow Light Snow
8:17 AM 21.2 °F - 17.6 °F 86% 30.16 in 7.0 mi Calm Calm - N/A Snow Light Snow
8:37 AM 23.0 °F - 17.6 °F 80% 30.17 in 10.0 mi Calm Calm - N/A   Overcast
8:57 AM 23.0 °F - 17.6 °F 80% 30.17 in 7.0 mi Calm Calm - N/A Snow Light Snow
9:17 AM 23.0 °F 18.4 °F 17.6 °F 80% 30.18 in 10.0 mi West 3.5 mph - N/A   Overcast
9:37 AM 23.0 °F 13.9 °F 17.6 °F 80% 30.19 in 10.0 mi WNW 8.1 mph - N/A   Overcast
9:57 AM 23.0 °F 13.1 °F 15.8 °F 74% 30.19 in 10.0 mi NW 9.2 mph - N/A   Overcast
10:17 AM 23.0 °F 13.9 °F 15.8 °F 74% 30.19 in 10.0 mi NW 8.1 mph - N/A   Overcast
10:37 AM 23.0 °F 13.9 °F 15.8 °F 74% 30.20 in 10.0 mi NW 8.1 mph - N/A   Overcast
10:57 AM 23.0 °F 13.1 °F 15.8 °F 74% 30.20 in 10.0 mi NW 9.2 mph - N/A   Overcast
11:17 AM 23.0 °F 13.1 °F 15.8 °F 74% 30.21 in 10.0 mi NNW 9.2 mph - N/A   Overcast
11:37 AM 23.0 °F 15.8 °F 14.0 °F 68% 30.20 in 10.0 mi North 5.8 mph - N/A   Overcast
11:57 AM 23.0 °F 14.7 °F 14.0 °F 68% 30.20 in 5.0 mi NNW 6.9 mph - N/A Snow Light Snow
12:17 PM 21.2 °F 16.4 °F 15.8 °F 80% 30.20 in 2.5 mi NW 3.5 mph - N/A Snow Light Snow
12:37 PM 23.0 °F 17.0 °F 15.8 °F 74% 30.19 in 10.0 mi NW 4.6 mph - N/A   Overcast
12:57 PM 23.0 °F 17.0 °F 14.0 °F 68% 30.20 in 10.0 mi WNW 4.6 mph - N/A   Overcast
1:17 PM 23.0 °F 15.8 °F 14.0 °F 68% 30.19 in 10.0 mi NW 5.8 mph - N/A   Overcast
1:37 PM 23.0 °F 15.8 °F 14.0 °F 68% 30.20 in 10.0 mi NW 5.8 mph - N/A   Overcast
1:57 PM 24.8 °F 17.9 °F 14.0 °F 64% 30.19 in 10.0 mi NNW 5.8 mph - N/A   Overcast
2:17 PM 24.8 °F 19.1 °F 14.0 °F 64% 30.19 in 10.0 mi NNW 4.6 mph - N/A   Overcast
2:37 PM 24.8 °F 19.1 °F 14.0 °F 64% 30.19 in 10.0 mi NNW 4.6 mph - N/A   Overcast
2:57 PM 24.8 °F 19.1 °F 14.0 °F 64% 30.19 in 10.0 mi NNW 4.6 mph - N/A   Overcast
3:17 PM 24.8 °F 20.5 °F 12.2 °F 59% 30.20 in 10.0 mi North 3.5 mph - N/A   Overcast
3:37 PM 23.0 °F 15.8 °F 14.0 °F 68% 30.21 in 10.0 mi NNE 5.8 mph - N/A   Overcast
3:57 PM 23.0 °F 17.0 °F 12.2 °F 63% 30.22 in 10.0 mi North 4.6 mph - N/A   Overcast
4:17 PM 23.0 °F 17.0 °F 14.0 °F 68% 30.23 in 10.0 mi North 4.6 mph - N/A   Overcast
4:37 PM 23.0 °F 17.0 °F 14.0 °F 68% 30.23 in 10.0 mi NNW 4.6 mph - N/A   Overcast
4:57 PM 23.0 °F 17.0 °F 14.0 °F 68% 30.24 in 10.0 mi North 4.6 mph - N/A   Overcast
5:17 PM 23.0 °F 17.0 °F 14.0 °F 68% 30.24 in 10.0 mi North 4.6 mph - N/A   Overcast
5:37 PM 23.0 °F 13.9 °F 15.8 °F 74% 30.25 in 10.0 mi ENE 8.1 mph - N/A   Overcast
5:57 PM 21.2 °F 12.6 °F 15.8 °F 80% 30.26 in 10.0 mi East 6.9 mph - N/A   Overcast
6:17 PM 21.2 °F 10.9 °F 15.8 °F 80% 30.26 in 10.0 mi ENE 9.2 mph - N/A Snow Light Snow
6:37 PM 19.4 °F 10.4 °F 15.8 °F 86% 30.26 in 10.0 mi ENE 6.9 mph - N/A   Overcast
6:57 PM 19.4 °F 10.4 °F 14.0 °F 80% 30.27 in 10.0 mi ENE 6.9 mph - N/A   Overcast
7:17 PM 19.4 °F 10.4 °F 12.2 °F 74% 30.27 in 10.0 mi ENE 6.9 mph - N/A   Overcast
7:37 PM 19.4 °F 10.4 °F 10.4 °F 68% 30.28 in 10.0 mi East 6.9 mph - N/A   Overcast
7:57 PM 19.4 °F 7.9 °F 10.4 °F 68% 30.29 in 10.0 mi East 10.4 mph - N/A   Overcast
8:17 PM 17.6 °F 5.7 °F 8.6 °F 68% 30.30 in 10.0 mi East 10.4 mph - N/A   Overcast
8:37 PM 17.6 °F 6.4 °F 8.6 °F 68% 30.30 in 10.0 mi ENE 9.2 mph - N/A   Overcast
8:57 PM 17.6 °F 6.4 °F 8.6 °F 68% 30.30 in 10.0 mi ENE 9.2 mph - N/A   Overcast
9:17 PM 19.4 °F 11.5 °F 8.6 °F 63% 30.31 in 10.0 mi ENE 5.8 mph - N/A   Overcast
9:37 PM 19.4 °F 14.3 °F 8.6 °F 63% 30.31 in 10.0 mi East 3.5 mph - N/A   Overcast
9:57 PM 17.6 °F 8.2 °F 8.6 °F 68% 30.31 in 10.0 mi East 6.9 mph - N/A   Overcast
10:17 PM 17.6 °F 6.4 °F 6.8 °F 63% 30.32 in 10.0 mi ENE 9.2 mph - N/A   Overcast
10:37 PM 19.4 °F 9.5 °F 8.6 °F 63% 30.31 in 10.0 mi East 8.1 mph - N/A   Overcast
10:57 PM 19.4 °F 11.5 °F 6.8 °F 58% 30.32 in 10.0 mi ENE 5.8 mph - N/A   Overcast
11:17 PM 19.4 °F 8.6 °F 8.6 °F 63% 30.31 in 10.0 mi ENE 9.2 mph - N/A   Overcast
11:37 PM 19.4 °F 9.5 °F 6.8 °F 58% 30.31 in 10.0 mi NE 8.1 mph - N/A   Overcast
11:57 PM 19.4 °F 8.6 °F 6.8 °F 58% 30.31 in 10.0 mi ENE 9.2 mph - N/A   Overcast